Date,TemperatureHighF,TemperatureAvgF,TemperatureLowF,DewpointHighF,DewpointAvgF,DewpointLowF,HumidityHigh,HumidityAvg,HumidityLow,PressureMaxIn,PressureMinIn,WindSpeedMaxMPH,WindSpeedAvgMPH,GustSpeedMaxMPH,PrecipitationSumIn
2013-1-5,0.0,0.0,0.0,0.0,0.0,0.0,0,0,100,30.24,30.12,17,9,20,0.00
2013-1-6,0.0,0.0,0.0,0.0,0.0,0.0,0,0,100,30.09,29.91,17,7,17,0.00
2013-1-10,45.5,41.6,40.8,8.9,8.5,6.5,26,25,22,30.45,30.42,9,0,9,0.00
2013-1-11,46.4,44.6,35.6,41.5,35.5,13.7,83,72,39,30.39,30.06,14,3,14,0.31
2013-1-12,48.2,46.9,45.7,44.6,43.0,41.5,94,86,78,30.06,30.00,13,2,14,0.00
2013-1-13,48.6,46.6,45.1,43.6,43.1,42.7,91,87,83,30.00,29.88,7,1,7,0.00
2013-1-14,52.9,51.2,49.8,48.3,25.5,15.3,94,43,24,30.06,29.88,16,6,16,0.00
2013-1-15,39.4,38.2,36.9,28.7,19.9,12.5,71,50,33,30.15,30.09,13,5,13,0.00
2013-1-16,37.0,36.2,34.0,34.9,33.4,28.5,92,89,79,30.03,29.77,15,6,16,0.43
2013-1-17,43.9,40.5,37.6,32.5,13.5,9.7,79,34,29,29.94,29.80,14,4,17,0.08
2013-1-18,30.4,28.2,26.8,3.9,-2.5,-6.0,32,26,23,30.33,30.09,36,8,39,0.00
2013-1-19,51.3,42.1,28.4,14.9,11.6,4.2,41,29,21,30.18,29.88,17,8,21,0.00
2013-1-20,54.7,48.2,38.7,18.3,15.3,8.8,43,28,19,29.62,29.53,43,18,43,0.00
2013-1-21,26.2,25.6,24.4,-5.6,-6.2,-7.2,24,24,24,29.91,29.91,0,0,0,0.00
2013-1-22,20.5,19.6,18.5,-12.3,-12.7,-13.1,23,22,22,29.94,29.91,25,15,28,0.00
2013-1-23,20.5,16.7,11.7,-9.7,-14.0,-18.1,26,24,22,30.06,30.00,20,7,20,0.00
2013-1-24,22.5,18.1,11.1,-10.5,-11.7,-12.6,34,26,22,30.21,29.94,28,7,28,0.00
2013-1-25,26.2,22.5,13.1,2.2,-5.6,-14.8,51,30,24,30.24,29.88,13,4,13,0.00
2013-1-26,26.8,23.0,17.8,2.9,-1.5,-5.2,50,35,26,30.09,29.97,22,7,29,0.00
2013-1-27,35.8,31.1,29.5,3.3,2.8,-0.2,32,30,22,30.33,30.27,18,16,18,0.00
2013-1-28,34.9,34.7,34.5,28.4,27.8,27.1,77,76,74,29.88,29.85,10,5,12,0.00
2013-1-29,43.3,43.2,43.2,34.0,34.0,33.9,70,70,69,29.91,29.91,18,12,18,0.00
2013-1-30,66.2,60.4,43.3,46.0,44.1,40.3,89,56,48,29.77,29.35,18,9,20,0.00
2013-1-31,61.5,54.1,35.6,57.4,42.1,4.9,87,68,26,29.47,28.88,45,22,50,0.67
2013-2-1,27.1,25.7,23.9,6.0,2.0,-1.8,42,35,32,30.00,29.83,24,11,29,0.00
2013-2-2,32.9,30.6,25.3,9.3,-0.0,-4.1,50,27,23,30.00,29.85,23,9,27,0.00
2013-2-3,33.1,28.4,25.2,12.6,11.5,10.4,56,49,41,29.77,29.62,9,0,9,0.00
2013-2-4,29.5,28.8,27.9,-2.1,-3.3,-4.5,26,24,23,29.77,29.74,21,12,23,0.00
2013-2-5,33.1,33.1,33.1,18.7,18.5,18.3,55,54,54,29.71,29.68,6,4,9,0.00
2013-2-6,37.6,34.4,29.8,23.9,10.3,4.0,76,39,27,30.06,29.74,14,4,16,0.00
2013-2-7,32.5,30.1,23.9,7.3,0.5,-7.3,34,28,24,30.21,30.21,13,4,14,0.00
2013-2-8,36.7,34.3,32.9,31.4,27.4,19.3,94,78,49,30.00,29.47,13,7,17,0.31
2013-2-9,28.9,24.4,20.5,-0.1,-2.0,-4.0,34,31,28,30.15,29.97,22,8,25,0.00
2013-2-10,34.7,27.4,16.3,13.2,3.8,-5.2,49,36,30,30.27,30.12,13,2,14,0.16
2013-2-11,40.8,36.7,30.0,37.3,28.1,13.2,87,73,49,30.15,29.53,0,0,0,0.24
2013-2-12,43.0,39.9,38.3,12.1,11.1,10.3,32,30,28,29.77,29.62,20,12,25,0.00
2013-2-13,39.6,34.9,29.5,15.7,13.5,12.5,49,42,33,29.71,29.50,9,2,9,0.00
2013-2-14,42.6,37.9,34.2,28.3,19.1,12.1,76,49,29,29.77,29.59,9,1,10,0.00
2013-2-15,55.4,45.3,33.8,25.1,21.4,18.3,70,41,25,29.80,29.71,13,4,13,0.00
2013-2-16,41.4,40.1,36.3,17.0,12.5,7.1,40,32,29,29.71,29.62,20,9,20,0.00
2013-2-17,29.5,29.0,27.9,-2.0,-3.9,-5.1,25,23,23,29.62,29.47,38,14,38,0.00
2013-2-18,31.6,24.4,17.2,-1.9,-6.5,-11.8,28,25,23,30.06,30.00,20,11,22,0.00
2013-2-19,45.9,45.4,44.6,38.4,38.1,37.7,77,75,73,29.53,29.50,18,9,18,0.04
2013-2-20,30.2,29.7,29.5,-1.4,-1.8,-2.0,25,25,25,29.77,29.71,28,17,36,0.00
2013-2-21,35.1,30.5,24.1,2.8,0.3,-1.3,33,27,25,30.06,29.80,35,12,35,0.00
2013-2-22,36.9,36.1,35.8,18.0,15.5,14.1,47,42,39,30.12,30.09,13,6,13,0.00
2013-2-23,43.5,41.5,38.5,42.5,39.5,36.9,96,93,87,29.91,29.68,18,8,21,0.20
2013-2-24,38.1,37.5,36.3,37.1,25.7,8.6,96,70,31,29.71,29.56,20,6,20,0.00
2013-2-25,45.9,40.9,31.3,13.8,12.4,10.3,41,31,27,29.94,29.85,16,4,16,0.00
2013-2-26,41.4,38.0,29.5,24.0,19.5,15.7,56,47,39,30.03,29.83,29,12,33,0.00
2013-2-27,45.5,42.8,38.7,38.2,32.4,27.6,97,69,51,29.47,29.38,18,10,18,0.43
2013-2-28,42.8,41.7,41.2,32.3,19.5,12.3,69,44,29,29.38,29.35,13,5,13,0.00
2013-3-1,44.2,40.4,38.5,13.9,12.5,11.7,33,31,28,29.56,29.47,25,7,25,0.00
2013-3-2,38.5,36.0,33.8,11.9,10.8,10.2,38,35,33,29.56,29.56,14,8,14,0.00
2013-3-3,35.1,33.2,31.1,7.5,6.0,4.4,33,31,30,29.53,29.50,20,9,24,0.00
2013-3-4,42.3,40.7,38.3,7.1,5.9,4.5,24,23,23,29.59,29.53,24,11,26,0.00
2013-3-5,39.2,35.3,32.2,13.0,10.1,7.8,36,35,33,29.71,29.68,14,6,17,0.00
2013-3-6,42.3,41.6,39.7,21.7,17.2,15.1,48,37,33,29.62,29.53,39,18,42,0.00
2013-3-7,38.8,37.9,36.7,26.8,22.2,12.4,66,54,34,29.74,29.62,28,11,29,0.00
2013-3-8,42.1,38.8,32.9,32.9,24.4,16.0,81,58,40,29.83,29.68,21,8,24,0.47
2013-3-9,56.8,43.8,33.8,16.0,11.9,4.7,43,29,17,29.91,29.83,14,5,18,0.00
2013-3-10,46.9,42.9,30.4,30.8,23.2,21.4,78,46,38,29.97,29.88,20,10,20,0.00
2013-3-12,58.3,57.8,57.4,55.1,54.2,53.5,89,88,87,29.21,29.18,16,8,20,0.55
2013-3-13,52.3,50.4,47.3,13.6,12.2,10.1,24,21,21,29.32,29.29,29,14,29,0.00
2013-3-14,44.1,40.5,34.3,5.6,4.4,2.7,27,22,20,29.38,29.32,25,20,25,0.00
2013-3-15,30.9,30.8,30.7,-0.9,-2.3,-2.7,25,23,23,29.44,29.44,12,9,15,0.00
2013-3-16,41.5,37.3,34.5,25.8,14.2,6.1,69,41,26,29.88,29.83,13,5,13,0.00
2013-3-17,40.3,38.6,35.6,7.1,4.4,2.3,29,23,21,30.21,30.15,21,9,23,0.00
2013-3-18,34.5,34.4,34.2,15.1,13.9,13.3,45,42,41,30.24,30.24,16,12,20,0.00
2013-3-19,48.7,46.5,44.1,23.0,19.1,17.3,36,33,32,29.74,29.71,14,3,18,0.00
2013-3-20,33.1,32.6,32.2,5.8,5.6,5.1,32,31,31,29.91,29.91,14,7,14,0.00
2013-3-21,41.5,37.7,33.1,17.1,7.5,1.0,51,30,21,29.80,29.65,17,8,21,0.00
2013-3-22,44.1,38.6,26.6,5.6,4.3,0.7,33,24,20,29.88,29.77,27,12,29,0.00
2013-3-23,48.2,42.5,36.7,10.1,7.4,2.4,31,23,19,29.97,29.85,27,14,29,0.00
2013-3-24,47.1,38.1,30.4,11.7,6.0,2.4,33,26,19,29.97,29.74,18,6,18,0.00
2013-3-25,37.9,37.7,37.4,31.4,31.2,30.9,78,77,77,29.53,29.50,12,5,13,0.08
2013-3-26,50.0,41.8,33.4,32.3,25.5,18.2,76,55,28,29.77,29.74,15,7,15,0.00
2013-3-27,52.3,43.8,35.8,17.4,14.8,10.6,39,31,21,29.94,29.91,28,11,28,0.00
2013-3-28,50.5,46.4,35.8,17.8,16.6,15.5,43,31,27,30.09,30.00,16,6,16,0.00
2013-3-29,56.3,48.6,35.2,15.8,13.9,10.2,43,26,20,30.15,30.06,23,6,28,0.00
2013-3-30,60.8,54.9,46.6,16.4,12.1,6.5,20,18,16,30.15,30.09,20,5,20,0.00
2013-3-31,55.4,50.4,44.8,25.6,24.0,21.1,42,36,26,30.12,29.85,14,5,15,0.00
2013-4-1,64.8,51.0,45.5,42.9,33.6,18.0,87,60,20,29.77,29.65,29,13,29,0.04
2013-4-2,46.2,41.2,30.2,7.4,5.0,1.5,30,22,20,30.03,30.00,29,14,29,0.00
2013-4-3,49.5,48.8,48.4,8.8,8.4,8.0,19,19,19,30.15,30.12,26,14,36,0.00
2013-4-4,52.9,48.3,43.0,14.0,10.8,6.4,25,22,18,30.24,30.15,18,9,18,0.00
2013-4-5,65.5,64.6,64.2,17.1,16.8,15.9,16,16,15,29.83,29.71,28,12,32,0.00
2013-4-6,55.4,50.8,44.1,12.5,9.6,5.6,20,19,17,30.33,30.27,22,7,22,0.00
2013-4-7,65.8,55.8,46.9,26.0,20.3,17.0,31,25,20,30.30,30.03,25,10,27,0.00
2013-4-8,71.4,71.3,71.2,27.0,26.9,26.9,19,19,19,30.03,30.03,18,12,24,0.00
2013-4-9,84.4,83.8,82.2,29.2,28.4,28.1,14,13,13,29.94,29.94,21,7,22,0.00
2013-4-10,66.9,66.7,66.4,30.8,30.1,29.7,26,25,25,29.91,29.88,21,12,23,0.00
2013-4-11,59.7,52.5,48.4,37.0,36.1,34.2,64,54,40,30.03,29.97,28,14,30,0.00
2013-4-12,45.5,44.4,43.9,41.5,40.4,38.7,89,86,77,30.00,29.74,28,9,33,0.47
2013-4-13,59.7,52.8,41.5,38.7,26.7,18.2,79,42,22,29.94,29.88,17,3,17,0.00
2013-4-14,59.9,54.6,46.8,36.7,19.2,11.5,62,29,17,30.18,30.03,20,3,24,0.00
2013-4-16,69.1,68.7,68.2,38.2,37.8,37.4,33,32,32,30.18,30.15,20,12,21,0.00
2013-4-17,72.7,72.4,72.0,23.9,23.7,23.1,16,16,16,30.21,30.21,13,5,19,0.00
2013-4-18,54.1,52.8,52.0,39.8,36.6,33.3,63,54,45,30.27,30.24,18,9,20,0.00
2013-4-20,53.1,51.9,50.9,33.8,26.8,19.8,51,39,27,29.94,29.91,41,12,41,0.04
2013-4-21,40.8,40.2,39.9,8.1,7.1,5.4,26,25,23,30.56,30.53,20,9,20,0.00
2013-4-22,53.2,52.4,51.4,20.0,18.6,17.7,27,26,26,30.56,30.53,34,18,34,0.00
2013-4-23,51.1,46.3,42.6,27.1,22.9,19.6,40,39,39,30.42,30.24,14,8,17,0.00
2013-4-24,65.7,64.2,62.2,35.2,34.8,34.3,35,33,32,29.88,29.83,17,8,22,0.00
2013-4-25,68.2,63.2,56.7,18.8,16.0,12.7,20,16,15,30.24,30.18,15,5,16,0.00
2013-4-26,68.2,61.5,55.6,20.6,17.5,14.4,25,18,15,30.39,30.33,12,2,13,0.00
2013-4-27,70.9,62.6,50.9,23.9,17.4,12.2,24,17,14,30.45,30.30,14,6,15,0.00
2013-4-28,72.5,70.5,68.9,23.9,22.4,19.4,17,16,15,30.24,30.24,25,12,26,0.00
2013-4-29,55.4,54.8,54.5,44.9,44.6,43.9,70,68,66,30.21,30.21,13,6,13,0.00
2013-4-30,59.9,59.0,57.6,17.6,16.8,15.3,19,19,19,30.36,30.33,14,8,16,0.00
2013-5-1,65.1,62.1,55.9,30.0,27.8,26.5,36,27,24,30.47,30.45,18,11,22,0.00
2013-5-2,71.2,63.1,42.4,32.8,25.6,22.3,68,28,17,30.45,30.36,16,3,16,0.00
2013-5-3,63.3,56.4,50.4,35.9,28.4,24.4,52,35,24,30.45,30.39,17,7,23,0.00
2013-5-4,66.2,60.1,49.8,41.5,29.3,24.5,63,32,23,30.33,30.27,25,9,25,0.00
2013-5-5,59.7,54.7,50.5,28.4,26.3,24.2,36,33,30,30.30,30.27,20,8,20,0.00
2013-5-6,66.2,61.7,50.0,37.9,33.0,31.1,63,36,27,30.24,30.18,14,6,16,0.00
2013-5-7,68.7,56.9,47.5,46.8,41.3,40.3,77,59,37,30.15,30.12,18,4,20,0.00
2013-5-8,65.5,61.8,57.9,58.1,52.9,47.2,90,73,65,30.06,30.00,13,3,13,0.94
2013-5-9,72.1,66.7,56.5,52.8,42.1,37.6,87,42,31,29.97,29.91,14,4,17,1.22
2013-5-10,77.7,76.6,75.4,39.1,37.1,35.6,27,24,22,29.94,29.94,16,7,16,0.00
2013-5-11,69.6,66.3,63.1,60.6,57.8,46.3,88,74,49,29.85,29.74,13,2,16,0.20
2013-5-12,66.9,66.4,65.7,17.8,17.4,16.8,15,15,15,29.77,29.77,30,17,36,0.00
2013-5-13,57.2,50.4,45.3,15.1,13.7,11.6,29,23,17,30.03,30.00,20,6,27,0.00
2013-5-14,64.6,59.6,40.6,18.8,16.8,15.8,41,21,15,30.12,30.06,13,6,13,0.00
2013-5-15,71.2,64.4,56.3,40.0,36.0,31.6,39,35,32,30.06,29.71,20,5,20,0.00
2013-5-16,83.3,75.0,60.4,53.8,41.5,35.6,73,35,19,29.85,29.74,20,4,21,0.00
2013-5-17,74.8,69.8,60.4,25.7,23.5,19.0,22,18,16,30.12,29.94,18,4,18,0.00
2013-5-18,63.9,62.9,61.9,46.0,39.4,35.8,56,42,36,30.33,30.30,10,2,10,0.00
2013-5-19,58.6,57.9,57.6,55.8,54.9,53.1,94,90,85,30.33,30.21,9,2,13,0.31
2013-5-20,82.2,78.8,58.8,58.3,48.6,46.2,98,38,30,30.12,29.97,14,6,16,0.00
2013-5-21,85.3,72.8,64.2,58.8,52.8,44.1,82,58,24,29.97,29.85,13,4,18,0.04
2013-5-22,80.4,74.5,69.3,61.2,56.4,50.0,75,57,35,29.88,29.88,10,3,15,0.00
2013-5-23,78.6,73.6,69.4,63.2,61.4,53.6,78,66,42,29.88,29.83,18,6,18,0.39
2013-5-24,52.5,49.9,48.9,44.1,42.2,40.7,78,75,73,29.94,29.85,17,6,20,0.16
2013-5-25,60.6,56.0,50.5,42.8,27.1,19.7,74,35,24,30.03,29.94,39,11,43,0.00
2013-5-26,71.8,68.1,57.2,24.4,21.1,16.7,26,17,15,30.15,30.03,25,9,27,0.00
2013-5-27,77.2,70.3,62.6,26.1,25.2,21.3,24,19,15,30.27,30.15,12,8,13,0.00
2013-5-28,70.9,64.9,59.4,57.2,43.6,32.4,92,55,25,30.24,30.15,8,1,9,0.31
2013-5-29,87.1,78.0,61.5,64.0,53.4,39.6,96,51,20,30.12,30.00,12,2,16,0.00
2013-5-30,94.3,87.4,81.0,49.5,43.3,36.4,33,23,14,30.15,30.09,21,7,24,0.00
2013-5-31,86.7,85.1,82.0,51.7,51.0,50.4,35,31,29,30.15,30.15,6,1,6,0.00
2013-6-1,94.3,87.6,78.3,54.6,46.1,41.5,44,25,17,30.06,29.94,14,6,18,0.00
2013-6-2,86.5,84.8,81.9,48.8,47.0,40.2,31,27,21,29.88,29.80,20,9,20,0.00
2013-6-3,79.9,74.1,68.9,69.9,59.9,48.2,88,66,33,29.88,29.83,13,5,13,0.75
2013-6-4,78.8,71.5,63.3,28.2,26.6,23.8,24,19,15,30.06,30.03,24,6,27,0.00
2013-6-5,72.0,66.6,60.8,44.5,34.0,22.9,55,32,17,30.24,30.15,17,6,18,0.00
2013-6-6,70.0,65.4,62.1,57.0,49.9,40.2,83,59,34,30.15,30.03,18,6,20,0.12
2013-6-7,64.8,62.4,60.8,63.9,61.4,60.1,98,96,95,29.91,29.74,13,6,13,1.93
2013-6-8,78.6,73.8,67.3,64.9,52.9,44.8,92,51,32,29.94,29.85,18,7,18,0.00
2013-6-9,80.4,76.1,73.4,46.2,41.3,37.8,32,29,25,30.21,30.18,8,0,9,0.00
2013-6-10,67.3,66.1,64.9,64.1,62.4,61.5,95,88,84,30.12,29.94,25,9,25,0.51
2013-6-11,81.7,77.2,71.1,71.4,55.3,41.6,98,53,26,29.77,29.65,25,10,30,0.00
2013-6-12,82.4,73.6,67.8,38.8,34.9,30.4,33,25,17,29.88,29.80,23,7,24,0.00
2013-6-13,67.1,65.9,64.2,60.3,53.3,44.6,85,64,45,29.77,29.50,18,8,20,0.63
2013-6-14,69.1,65.5,62.8,44.4,41.8,39.2,51,42,35,29.91,29.85,12,2,13,0.00
2013-6-15,81.9,76.8,72.5,48.1,32.6,26.6,42,21,14,30.00,29.94,20,3,20,0.00
2013-6-16,83.8,67.7,61.9,49.3,46.1,36.0,61,49,19,30.00,29.88,13,1,13,0.00
2013-6-17,89.4,82.2,76.6,57.7,45.5,36.2,52,29,19,29.94,29.85,16,7,21,0.00
2013-6-18,85.5,77.9,69.1,56.0,49.9,46.2,63,39,27,29.91,29.85,12,3,13,0.00
2013-6-19,76.6,71.5,66.9,37.5,30.5,25.0,33,23,15,30.09,30.00,18,6,18,0.00
2013-6-20,82.9,82.8,82.6,36.5,36.5,36.2,19,19,19,30.27,30.27,10,4,13,0.00
2013-6-21,87.3,79.1,74.5,36.5,34.2,31.4,21,20,16,30.33,30.27,13,6,13,0.00
2013-6-22,83.1,80.2,75.2,44.8,41.0,38.4,31,25,21,30.27,30.24,13,4,13,0.00
2013-6-23,92.5,86.3,79.9,49.3,45.5,42.8,32,25,19,30.21,30.09,15,8,15,0.00
2013-6-24,96.4,89.3,83.7,53.9,44.9,36.1,34,22,14,30.09,30.00,18,7,24,0.00
2013-6-25,85.8,81.8,77.5,64.5,53.4,46.2,58,39,29,30.00,29.83,14,5,14,0.24
2013-6-26,90.9,87.0,82.4,43.8,41.9,40.3,25,21,18,29.88,29.80,17,5,19,0.24
2013-6-27,90.1,82.0,74.5,67.9,52.0,43.0,80,38,20,29.80,29.59,16,7,18,0.04
2013-6-28,89.2,87.0,83.7,50.2,45.8,42.5,30,24,20,29.56,29.50,17,7,18,0.00
2013-6-29,89.6,83.1,72.1,64.9,50.1,39.7,78,38,18,29.62,29.62,18,6,18,0.00
2013-6-30,88.5,80.9,78.1,59.6,56.0,51.0,50,43,29,29.88,29.83,18,5,18,0.08
2013-7-1,79.2,76.4,74.8,70.9,66.1,61.2,80,71,57,30.00,29.94,16,3,17,0.79
2013-7-2,86.2,83.3,80.8,65.3,61.8,55.8,57,49,36,30.15,30.15,13,6,14,0.00
2013-7-3,80.8,79.7,78.3,67.2,65.4,63.6,68,62,56,30.27,30.21,6,0,10,0.00
2013-7-4,93.2,91.7,90.9,52.8,47.2,43.5,27,22,19,30.24,30.18,21,9,28,0.00
2013-7-5,94.3,85.5,81.7,58.6,50.1,42.1,45,31,17,30.24,30.12,18,6,18,0.00
2013-7-6,96.4,95.6,93.9,44.6,44.1,43.0,18,17,16,30.12,30.09,17,9,25,0.00
2013-7-7,97.3,93.0,86.7,51.6,46.7,43.1,30,21,16,30.09,29.97,16,8,16,0.00
2013-7-8,93.6,86.8,81.5,49.5,45.9,40.5,32,25,17,30.06,30.03,18,8,19,0.00
2013-7-9,91.6,87.8,84.0,48.4,46.0,42.0,29,24,18,30.09,30.06,12,6,12,0.00
2013-7-10,88.3,84.7,79.9,66.8,57.0,48.2,64,40,29,29.97,29.85,18,6,18,0.00
2013-7-11,90.0,85.0,78.4,58.4,45.6,39.9,50,27,18,29.91,29.85,13,4,17,0.00
2013-7-12,78.8,75.3,71.2,64.6,52.8,40.8,79,50,26,30.09,30.03,18,10,21,0.31
2013-7-13,81.1,76.9,72.3,77.4,71.9,61.0,100,86,53,30.27,30.21,13,4,13,1.57
2013-7-14,93.6,88.7,79.9,76.8,53.4,44.0,90,34,18,30.36,30.27,16,7,18,0.00
2013-7-15,96.1,90.5,85.6,54.5,50.9,45.8,34,27,19,30.27,30.21,14,5,19,0.00
2013-7-16,95.7,90.5,85.8,52.4,48.2,42.3,28,24,21,30.24,30.15,17,4,20,0.00
2013-7-17,96.6,93.5,88.5,58.7,56.8,54.5,36,29,27,30.21,30.09,9,4,9,0.00
2013-7-18,100.4,95.1,88.7,66.9,59.1,52.6,48,31,20,30.09,29.97,15,4,16,0.00
2013-7-19,99.9,94.8,86.5,70.7,64.4,57.6,54,38,26,29.97,29.83,19,9,19,0.00
2013-7-20,90.5,79.8,76.1,76.7,70.5,60.4,100,78,37,29.85,29.80,18,3,23,1.02
2013-7-21,87.8,82.9,78.8,79.9,58.7,50.0,100,48,31,29.97,29.91,6,3,6,0.00
2013-7-22,87.3,82.0,76.8,77.2,70.7,65.0,100,71,49,29.97,29.85,13,6,17,0.08
2013-7-23,87.3,77.7,72.7,79.5,73.5,65.4,100,89,49,29.71,29.65,18,7,18,0.00
2013-7-24,85.5,82.4,79.2,64.0,55.5,51.4,54,40,32,29.83,29.71,13,5,15,0.00
2013-7-25,68.2,66.8,65.7,46.6,43.4,41.2,46,43,41,30.06,29.97,16,8,21,0.00
2013-7-26,76.8,73.4,70.7,55.6,53.7,51.2,56,50,42,30.06,30.06,13,3,13,0.00
2013-7-27,83.5,80.8,77.5,63.9,59.4,53.0,63,49,36,30.09,30.06,10,4,13,0.00
2013-7-28,73.9,73.7,73.2,73.9,73.7,73.2,100,100,100,30.00,29.97,9,4,9,0.00
2013-7-29,85.1,79.7,77.0,64.9,59.7,54.9,66,51,36,30.06,30.03,10,2,10,0.00
2013-7-30,83.8,79.0,71.6,49.5,47.3,45.3,42,33,27,30.21,30.12,20,5,20,0.00
2013-7-31,82.6,80.6,74.8,51.6,50.3,49.7,44,35,32,30.18,30.09,13,4,13,0.00
2013-8-1,74.3,70.3,68.4,70.7,68.4,60.9,100,94,63,29.97,29.88,17,4,17,0.47
2013-8-2,83.8,76.1,71.8,72.5,63.5,45.6,100,73,27,29.94,29.88,14,3,18,0.00
2013-8-3,80.4,75.3,71.4,64.0,59.8,56.0,76,59,51,29.94,29.88,16,9,16,0.00
2013-8-4,82.8,76.8,72.0,52.3,46.7,40.3,49,36,24,29.91,29.88,20,6,20,0.00
2013-8-5,80.6,75.2,67.6,44.4,41.3,37.5,42,30,24,30.09,30.00,17,6,17,0.00
2013-8-6,72.0,71.2,70.5,53.6,51.6,49.7,54,50,46,30.09,30.09,0,0,0,0.00
2013-8-7,77.4,77.1,76.5,62.3,61.6,61.0,61,59,58,30.09,30.09,21,9,21,0.00
2013-8-8,83.7,75.6,73.8,77.9,74.4,67.2,100,97,60,30.09,30.03,20,3,20,0.55
2013-8-9,88.3,84.3,77.5,82.2,71.3,62.7,100,68,42,29.91,29.83,12,2,18,0.04
2013-8-10,86.7,81.0,75.6,63.5,52.8,49.4,66,38,31,30.03,30.00,18,5,18,0.00
2013-8-11,85.5,84.6,83.3,47.9,45.8,42.1,27,26,22,30.06,30.06,18,8,18,0.00
2013-8-12,83.1,72.3,69.6,73.6,70.9,59.1,100,96,44,30.06,30.00,9,1,10,0.20
2013-8-13,78.6,74.4,72.7,73.1,69.3,61.5,100,86,56,29.85,29.74,11,1,12,0.63
2013-8-14,76.6,67.8,60.6,47.2,42.9,37.5,58,42,26,30.03,29.85,20,7,23,0.00
2013-8-15,72.9,67.0,59.2,53.0,45.7,36.2,80,48,29,30.18,30.12,13,2,13,0.00
2013-8-16,81.5,70.4,61.2,63.0,52.9,40.3,100,65,24,30.18,30.18,12,2,12,0.00
2013-8-17,69.3,66.6,64.9,62.2,59.7,53.8,90,79,60,30.30,30.27,6,1,9,0.00
2013-8-18,71.8,68.7,66.0,64.2,58.8,55.3,83,71,56,30.27,30.24,6,0,6,0.00
2013-8-19,79.3,71.1,63.9,66.0,58.2,49.7,100,71,36,30.15,30.09,15,3,15,0.00
2013-8-20,90.3,83.6,66.7,70.9,53.6,48.2,100,41,26,30.15,30.09,15,4,15,0.00
2013-8-21,91.0,82.4,66.9,69.8,52.1,43.8,100,46,20,30.21,30.09,13,4,20,0.00
2013-8-22,80.6,74.5,71.8,76.7,72.9,69.8,100,95,71,30.06,29.94,13,2,17,0.47
2013-8-23,82.4,81.7,80.2,45.0,41.6,40.3,29,24,24,30.03,30.00,20,6,21,0.00
2013-8-24,80.1,74.2,64.4,47.5,42.2,37.5,42,32,26,30.30,30.24,18,6,18,0.00
2013-8-25,66.0,60.5,58.3,65.7,60.5,58.3,100,100,100,30.42,30.39,6,0,6,0.00
2013-8-26,85.6,84.5,82.4,52.7,52.0,50.5,34,32,32,30.03,30.03,21,8,21,0.00
2013-8-27,88.9,87.9,86.9,54.0,53.2,52.3,32,31,31,29.88,29.85,12,4,14,0.00
2013-8-28,75.9,74.2,71.8,75.9,73.3,69.3,100,97,92,29.91,29.88,0,0,0,0.59
2013-9-11,94.8,86.2,74.8,74.8,63.6,55.7,100,55,31,30.09,30.03,14,5,18,0.00
2013-9-12,85.3,79.4,71.1,69.6,66.0,63.5,90,65,51,29.83,29.71,25,8,28,0.98
2013-9-13,77.7,75.9,74.3,49.8,46.8,45.1,41,36,34,29.71,29.68,21,8,21,0.00
2013-9-19,75.9,75.1,74.1,41.4,38.8,37.5,31,27,26,30.15,30.12,13,6,13,0.00
2013-9-20,75.6,67.8,54.1,65.8,56.4,47.5,100,72,37,30.12,30.06,13,3,13,0.00